Date,TemperatureHighF,TemperatureAvgF,TemperatureLowF,DewpointHighF,DewpointAvgF,DewpointLowF,HumidityHigh,HumidityAvg,HumidityLow,PressureMaxIn,PressureMinIn,WindSpeedMaxMPH,WindSpeedAvgMPH,GustSpeedMaxMPH,PrecipitationSumIn
2013-9-1,82.9,71.7,65.8,74.3,68.5,64.3,99,90,68,29.97,29.88,11,1,14,0.35
2013-9-2,83.1,71.8,65.1,74.8,68.9,64.9,99,91,70,29.99,29.89,8,0,17,0.38
2013-9-3,82.6,72.6,62.6,71.5,65.5,60.0,99,80,53,30.07,29.91,8,2,14,2.06
2013-9-4,83.7,69.3,57.4,67.6,60.0,56.9,99,76,42,30.17,30.07,8,1,12,0.00
2013-9-5,80.1,66.9,54.9,65.4,60.7,54.0,99,82,56,30.22,30.16,5,1,10,0.00
2013-9-6,85.5,69.9,56.8,67.0,62.4,56.6,99,80,49,30.23,30.12,4,0,7,0.00
2013-9-7,84.9,70.0,57.4,69.0,63.8,57.1,99,83,54,30.16,30.04,4,1,9,0.01
2013-9-8,87.3,72.0,63.1,73.1,64.9,60.7,99,81,44,30.07,30.01,5,0,11,0.01
2013-9-9,88.2,73.8,62.6,71.8,66.7,61.8,99,81,50,30.16,30.05,4,1,8,0.00
2013-9-10,88.5,74.9,64.8,72.2,67.9,64.5,99,81,52,30.27,30.15,5,1,9,0.00
2013-9-11,85.8,73.8,66.6,74.1,69.6,66.0,99,87,64,30.27,30.14,4,0,8,0.01
2013-9-12,88.3,73.5,66.2,75.0,68.4,64.2,99,86,52,30.14,29.95,7,1,26,0.01
2013-9-13,74.7,66.5,57.0,65.4,57.0,48.6,99,74,47,30.04,29.93,9,3,15,0.01
2013-9-14,73.6,58.7,46.2,56.3,50.5,45.4,97,76,42,30.13,30.03,7,1,100,0.00
2013-9-15,79.5,63.4,47.7,64.0,56.4,47.4,99,81,49,30.22,30.12,6,1,11,0.01
2013-9-16,74.1,63.0,54.3,66.2,59.5,53.5,99,89,67,30.23,30.15,7,1,13,0.01
2013-9-17,79.9,67.5,55.6,65.0,60.0,53.9,96,79,56,30.27,30.17,5,1,10,0.00
2013-9-18,66.7,62.8,60.4,61.8,58.7,55.9,95,87,77,30.26,30.18,4,0,4,0.00
2013-9-19,81.5,68.0,59.0,68.6,63.5,58.2,99,87,61,30.21,30.10,6,0,9,0.00
2013-9-20,75.9,70.3,62.2,69.8,66.3,61.7,99,87,79,30.11,30.09,4,1,5,0.00
2013-9-21,75.9,75.9,75.9,69.0,69.0,69.0,79,79,79,30.09,30.09,2,2,5,0.00
2013-9-22,75.9,75.9,75.9,69.0,69.0,69.0,79,79,79,30.09,30.09,2,2,5,0.00
2013-9-23,75.9,75.9,75.9,69.0,69.0,69.0,79,79,79,30.09,30.09,2,2,5,0.00
2013-9-24,81.5,73.9,64.6,69.0,65.5,57.9,92,76,50,30.15,29.94,4,1,8,0.01
2013-9-25,72.3,65.4,61.7,66.1,62.1,60.6,97,90,71,29.96,29.89,5,0,10,0.17
2013-9-26,77.4,66.3,59.2,62.5,59.3,54.5,99,80,48,30.09,29.93,8,1,13,0.01
2013-9-27,80.6,64.1,50.5,62.5,56.4,50.1,99,79,44,30.20,30.09,6,1,7,0.00
2013-9-28,78.1,63.3,51.1,62.3,56.8,50.8,99,82,49,30.27,30.14,5,1,8,0.01
2013-9-29,74.8,61.5,53.8,61.5,57.2,53.0,99,87,61,30.18,30.04,5,0,9,0.01
2013-9-30,76.5,61.8,54.3,65.0,56.8,53.5,99,86,54,30.14,30.04,5,0,10,0.00